| time (UTC) | temp F | wind direction | speed knots | gust knots | rain 1hr in | rain 24hr in | rain mn in | humidity % | barometer mb |
| 20260906172517 | 79 | 72 | 0.9 | 0.9 | 0.00 | 0.00 | 0.00 | 77 | 1019.7 |
| 20260906172012 | 80 | 92 | 0.9 | 0.9 | 0.00 | 0.00 | 0.00 | 77 | 1019.7 |
| 20260906171507 | 79 | 90 | 0.9 | 0.9 | 0.00 | 0.00 | 0.00 | 77 | 1019.7 |
| 20260906171002 | 80 | 91 | 0.9 | 1.7 | 0.00 | 0.00 | 0.00 | 77 | 1019.8 |
| 20260906170458 | 80 | 109 | 2.6 | 5.2 | 0.00 | 0.00 | 0.00 | 76 | 1019.5 |
| 20260906165955 | 80 | 107 | 2.6 | 2.6 | 0.00 | 0.00 | 0.00 | 75 | 1019.8 |
| 20260906165454 | 81 | 97 | 1.7 | 1.7 | 0.00 | 0.00 | 0.00 | 75 | 1019.6 |
| 20260906164949 | 81 | 51 | 1.7 | 2.6 | 0.00 | 0.00 | 0.00 | 75 | 1019.8 |
| 20260906164448 | 81 | 112 | 0.9 | 1.7 | 0.00 | 0.00 | 0.00 | 74 | 1019.7 |
| 20260906163945 | 81 | 126 | 2.6 | 4.3 | 0.00 | 0.00 | 0.00 | 74 | 1019.6 |
| 20260906163440 | 82 | 93 | 0.9 | 0.9 | 0.00 | 0.00 | 0.00 | 73 | 1019.6 |
| 20260906162938 | 82 | 111 | 1.7 | 2.6 | 0.00 | 0.00 | 0.00 | 72 | 1019.6 |
| 20260906162431 | 81 | 56 | 0.9 | 0.9 | 0.00 | 0.00 | 0.00 | 73 | 1019.8 |
| 20260906161927 | 81 | 93 | 0.9 | 1.7 | 0.00 | 0.00 | 0.00 | 73 | 1019.5 |
| 20260906161426 | 81 | 64 | 1.7 | 1.7 | 0.00 | 0.00 | 0.00 | 73 | 1019.6 |
| 20260906160925 | 81 | 97 | 0.9 | 1.7 | 0.00 | 0.00 | 0.00 | 74 | 1019.8 |
| 20260906160418 | 81 | 81 | 0.9 | 1.7 | 0.00 | 0.00 | 0.00 | 73 | 1019.7 |
| 20260906155917 | 81 | 84 | 0.0 | 0.0 | 0.00 | 0.00 | 0.00 | 73 | 1020.0 |
| 20260906155410 | 82 | 109 | 1.7 | 2.6 | 0.00 | 0.00 | 0.00 | 73 | 1019.9 |
| 20260906154907 | 82 | 87 | 0.9 | 0.9 | 0.00 | 0.00 | 0.00 | 73 | 1019.9 |
| 20260906154401 | 80 | 85 | 0.0 | 0.9 | 0.00 | 0.00 | 0.00 | 76 | 1019.9 |
| 20260906153900 | 81 | 69 | 0.9 | 0.9 | 0.00 | 0.00 | 0.00 | 75 | 1019.8 |
| 20260906153359 | 81 | 97 | 0.9 | 0.9 | 0.00 | 0.00 | 0.00 | 74 | 1019.9 |
| 20260906152854 | 80 | 106 | 0.9 | 0.9 | 0.00 | 0.00 | 0.00 | 74 | 1019.8 |
| 20260906152349 | 81 | 126 | 1.7 | 1.7 | 0.00 | 0.00 | 0.00 | 74 | 1020.0 |
| 20260906151848 | 80 | 74 | 0.9 | 1.7 | 0.00 | 0.00 | 0.00 | 74 | 1020.2 |
| 20260906151344 | 80 | 140 | 1.7 | 1.7 | 0.00 | 0.00 | 0.00 | 74 | 1020.0 |
| 20260906150840 | 80 | 113 | 0.9 | 0.9 | 0.00 | 0.00 | 0.00 | 75 | 1020.1 |
| 20260906150335 | 79 | 115 | 0.9 | 0.9 | 0.00 | 0.00 | 0.00 | 76 | 1020.0 |
| 20260906145834 | 79 | 155 | 0.9 | 1.7 | 0.00 | 0.00 | 0.00 | 77 | 1020.0 |
| 20260906145333 | 78 | 121 | 0.9 | 1.7 | 0.00 | 0.00 | 0.00 | 78 | 1019.9 |
| 20260906144828 | 77 | 69 | 0.9 | 0.9 | 0.00 | 0.00 | 0.00 | 80 | 1020.1 |
| 20260906144323 | 77 | 89 | 0.9 | 0.9 | 0.00 | 0.00 | 0.00 | 81 | 1020.0 |
| 20260906143823 | 76 | 101 | 0.0 | 0.0 | 0.00 | 0.00 | 0.00 | 83 | 1020.0 |
| 20260906143319 | 76 | 181 | 4.3 | 5.2 | 0.00 | 0.00 | 0.00 | 82 | 1020.0 |
| 20260906142815 | 76 | 171 | 0.9 | 0.9 | 0.00 | 0.00 | 0.00 | 82 | 1020.0 |
| 20260906142309 | 76 | 112 | 0.9 | 1.7 | 0.00 | 0.00 | 0.00 | 82 | 1020.0 |
| 20260906141809 | 76 | 121 | 2.6 | 4.3 | 0.00 | 0.00 | 0.00 | 82 | 1019.8 |
| 20260906141304 | 76 | 183 | 2.6 | 2.6 | 0.00 | 0.00 | 0.00 | 82 | 1019.9 |
| 20260906140802 | 76 | 101 | 0.9 | 1.7 | 0.00 | 0.00 | 0.00 | 83 | 1020.1 |
| 20260906140257 | 76 | 129 | 1.7 | 1.7 | 0.00 | 0.00 | 0.00 | 83 | 1020.0 |
| 20260906135755 | 76 | 91 | 0.9 | 0.9 | 0.00 | 0.00 | 0.00 | 83 | 1020.0 |
| 20260906135250 | 76 | 85 | 0.9 | 0.9 | 0.00 | 0.00 | 0.00 | 83 | 1020.0 |
| 20260906134746 | 75 | 109 | 0.9 | 0.9 | 0.00 | 0.00 | 0.00 | 85 | 1020.0 |
| 20260906134241 | 75 | 109 | 0.9 | 0.9 | 0.00 | 0.00 | 0.00 | 85 | 1020.2 |
| 20260906133736 | 75 | 99 | 0.0 | 0.9 | 0.00 | 0.00 | 0.00 | 85 | 1020.1 |
| 20260906133232 | 75 | 99 | 0.0 | 0.9 | 0.00 | 0.00 | 0.00 | 86 | 1020.1 |
| 20260906132727 | 74 | 118 | 0.0 | 0.0 | 0.00 | 0.00 | 0.00 | 86 | 1019.8 |
| 20260906132222 | 74 | 118 | 0.0 | 0.0 | 0.00 | 0.00 | 0.00 | 87 | 1019.8 |
| 20260906131718 | 73 | 118 | 0.0 | 0.0 | 0.00 | 0.00 | 0.00 | 88 | 1020.0 |
| 20260906131213 | 73 | 112 | 0.0 | 0.0 | 0.00 | 0.00 | 0.00 | 88 | 1020.1 |
| 20260906130708 | 73 | 112 | 0.0 | 0.0 | 0.00 | 0.00 | 0.00 | 88 | 1020.1 |
| 20260906130203 | 73 | 112 | 0.0 | 0.0 | 0.00 | 0.00 | 0.00 | 89 | 1019.9 |
| 20260906125701 | 73 | 112 | 0.0 | 0.0 | 0.00 | 0.00 | 0.00 | 89 | 1020.0 |
| 20260906125200 | 72 | 112 | 0.0 | 0.0 | 0.00 | 0.00 | 0.00 | 89 | 1019.8 |
| 20260906124655 | 72 | 112 | 0.0 | 0.0 | 0.00 | 0.00 | 0.00 | 90 | 1019.7 |
| 20260906124150 | 72 | 112 | 0.0 | 0.0 | 0.00 | 0.00 | 0.00 | 90 | 1019.5 |
| 20260906123649 | 72 | 112 | 0.0 | 0.0 | 0.00 | 0.00 | 0.00 | 90 | 1019.5 |
| 20260906123145 | 72 | 112 | 0.0 | 0.0 | 0.00 | 0.00 | 0.00 | 90 | 1019.6 |
| 20260906122644 | 72 | 112 | 0.9 | 0.9 | 0.00 | 0.00 | 0.00 | 90 | 1019.3 |
| 20260906122140 | 71 | 113 | 0.0 | 0.9 | 0.00 | 0.00 | 0.00 | 91 | 1019.4 |
| 20260906121636 | 71 | 97 | 0.0 | 0.0 | 0.00 | 0.00 | 0.00 | 91 | 1019.2 |
| 20260906121132 | 71 | 90 | 0.0 | 0.0 | 0.00 | 0.00 | 0.00 | 91 | 1019.1 |
| 20260906120627 | 71 | 95 | 0.9 | 0.9 | 0.00 | 0.00 | 0.00 | 91 | 1019.2 |
| 20260906120124 | 71 | 91 | 0.9 | 0.9 | 0.00 | 0.00 | 0.00 | 91 | 1019.2 |
| 20260906115619 | 71 | 91 | 0.9 | 1.7 | 0.00 | 0.00 | 0.00 | 91 | 1019.0 |
| 20260906115114 | 71 | 91 | 0.9 | 0.9 | 0.00 | 0.00 | 0.00 | 91 | 1019.0 |
| 20260906114608 | 71 | 92 | 0.0 | 0.9 | 0.00 | 0.00 | 0.00 | 91 | 1018.9 |
| 20260906114103 | 71 | 83 | 0.9 | 0.9 | 0.00 | 0.00 | 0.00 | 91 | 1018.7 |
| 20260906113602 | 71 | 95 | 0.0 | 0.0 | 0.00 | 0.00 | 0.00 | 91 | 1018.6 |
| 20260906113057 | 71 | 109 | 0.0 | 0.9 | 0.00 | 0.00 | 0.00 | 91 | 1018.6 |
| 20260906112552 | 71 | 109 | 0.9 | 0.9 | 0.00 | 0.00 | 0.00 | 91 | 1018.9 |
| 20260906112048 | 71 | 90 | 0.9 | 0.9 | 0.00 | 0.00 | 0.00 | 91 | 1018.8 |
| 20260906111548 | 71 | 93 | 0.9 | 0.9 | 0.00 | 0.00 | 0.00 | 90 | 1018.8 |
| 20260906111043 | 71 | 89 | 0.0 | 0.9 | 0.00 | 0.00 | 0.00 | 90 | 1018.8 |
| 20260906110543 | 72 | 89 | 0.9 | 0.9 | 0.00 | 0.00 | 0.00 | 90 | 1018.9 |
| 20260906110042 | 72 | 86 | 0.0 | 0.9 | 0.00 | 0.00 | 0.00 | 90 | 1019.0 |
| 20260906105537 | 72 | 86 | 0.0 | 0.0 | 0.00 | 0.00 | 0.00 | 90 | 1018.9 |
| 20260906105033 | 72 | 87 | 0.0 | 0.0 | 0.00 | 0.00 | 0.00 | 90 | 1019.1 |
| 20260906104531 | 72 | 91 | 0.0 | 0.0 | 0.00 | 0.00 | 0.00 | 90 | 1019.1 |
| 20260906104026 | 72 | 92 | 0.9 | 0.9 | 0.00 | 0.00 | 0.00 | 90 | 1019.1 |
| 20260906103525 | 72 | 95 | 0.9 | 1.7 | 0.00 | 0.00 | 0.00 | 90 | 1019.0 |
| 20260906103020 | 72 | 129 | 0.9 | 0.9 | 0.00 | 0.00 | 0.00 | 90 | 1019.2 |
| 20260906102520 | 72 | 129 | 0.0 | 0.0 | 0.00 | 0.00 | 0.00 | 90 | 1019.0 |
| 20260906102015 | 72 | 129 | 0.0 | 0.0 | 0.00 | 0.00 | 0.00 | 90 | 1019.0 |
| 20260906101509 | 72 | 131 | 0.9 | 0.9 | 0.00 | 0.00 | 0.00 | 90 | 1019.1 |
| 20260906101004 | 72 | 99 | 0.9 | 0.9 | 0.00 | 0.00 | 0.00 | 90 | 1018.8 |
| 20260906100500 | 72 | 88 | 0.0 | 0.0 | 0.00 | 0.00 | 0.00 | 90 | 1019.0 |
| 20260906095954 | 72 | 96 | 0.0 | 0.0 | 0.00 | 0.00 | 0.00 | 89 | 1019.1 |
| 20260906095449 | 72 | 97 | 0.0 | 0.9 | 0.00 | 0.00 | 0.00 | 89 | 1019.0 |
| 20260906094944 | 72 | 99 | 0.9 | 0.9 | 0.00 | 0.00 | 0.00 | 89 | 1019.2 |
| 20260906094444 | 72 | 97 | 0.0 | 0.0 | 0.00 | 0.00 | 0.00 | 89 | 1019.0 |
| 20260906093940 | 72 | 73 | 0.0 | 0.0 | 0.00 | 0.00 | 0.00 | 89 | 1019.0 |
| 20260906093436 | 72 | 81 | 0.0 | 0.0 | 0.00 | 0.00 | 0.00 | 89 | 1018.8 |
| 20260906092935 | 72 | 81 | 0.0 | 0.0 | 0.00 | 0.00 | 0.00 | 89 | 1018.7 |
| 20260906092430 | 72 | 84 | 0.0 | 0.0 | 0.00 | 0.00 | 0.00 | 89 | 1018.6 |
| 20260906091925 | 73 | 95 | 0.0 | 0.0 | 0.00 | 0.00 | 0.00 | 89 | 1018.7 |
| 20260906091421 | 73 | 99 | 0.0 | 0.0 | 0.00 | 0.00 | 0.00 | 89 | 1018.7 |
| 20260906090917 | 73 | 87 | 0.0 | 0.0 | 0.00 | 0.00 | 0.00 | 89 | 1018.5 |
| 20260906090412 | 73 | 91 | 0.0 | 0.0 | 0.00 | 0.00 | 0.00 | 89 | 1018.5 |
| 20260906085906 | 73 | 79 | 0.9 | 0.9 | 0.00 | 0.00 | 0.00 | 88 | 1018.4 |
| 20260906085400 | 73 | 99 | 0.9 | 0.9 | 0.00 | 0.00 | 0.00 | 88 | 1018.4 |
| 20260906084859 | 73 | 90 | 0.0 | 0.0 | 0.00 | 0.00 | 0.00 | 88 | 1018.3 |
| 20260906084354 | 73 | 83 | 0.9 | 0.9 | 0.00 | 0.00 | 0.00 | 88 | 1018.4 |
| 20260906083848 | 73 | 118 | 1.7 | 2.6 | 0.00 | 0.00 | 0.00 | 88 | 1018.4 |
| 20260906083344 | 73 | 106 | 0.0 | 0.0 | 0.00 | 0.00 | 0.00 | 87 | 1018.4 |
| 20260906082843 | 73 | 88 | 0.9 | 0.9 | 0.00 | 0.00 | 0.00 | 87 | 1018.3 |
| 20260906082338 | 73 | 105 | 0.9 | 0.9 | 0.00 | 0.00 | 0.00 | 87 | 1018.4 |
| 20260906081835 | 74 | 92 | 0.9 | 0.9 | 0.00 | 0.00 | 0.00 | 87 | 1018.6 |
| 20260906081330 | 74 | 89 | 0.0 | 0.0 | 0.00 | 0.00 | 0.00 | 87 | 1018.5 |
| 20260906080826 | 74 | 61 | 0.0 | 0.0 | 0.00 | 0.00 | 0.00 | 86 | 1018.4 |
| 20260906080322 | 74 | 90 | 0.0 | 0.0 | 0.00 | 0.00 | 0.00 | 87 | 1018.4 |
| 20260906075822 | 74 | 105 | 0.0 | 0.0 | 0.00 | 0.00 | 0.00 | 87 | 1018.2 |
| 20260906075322 | 74 | 93 | 0.9 | 1.7 | 0.00 | 0.00 | 0.00 | 87 | 1018.3 |
| 20260906074817 | 74 | 110 | 0.0 | 0.9 | 0.00 | 0.00 | 0.00 | 87 | 1018.3 |
| 20260906074317 | 74 | 84 | 0.9 | 0.9 | 0.00 | 0.00 | 0.00 | 87 | 1018.0 |
| 20260906073816 | 74 | 88 | 0.9 | 0.9 | 0.00 | 0.00 | 0.00 | 87 | 1018.1 |
| 20260906073311 | 74 | 90 | 0.0 | 0.0 | 0.00 | 0.00 | 0.00 | 87 | 1018.0 |
| 20260906072807 | 74 | 92 | 1.7 | 1.7 | 0.00 | 0.00 | 0.00 | 87 | 1018.4 |
| 20260906072305 | 74 | 90 | 0.0 | 0.0 | 0.00 | 0.00 | 0.00 | 87 | 1018.3 |
| 20260906071758 | 75 | 99 | 0.0 | 0.9 | 0.00 | 0.00 | 0.00 | 87 | 1018.4 |
| 20260906071258 | 75 | 111 | 0.9 | 0.9 | 0.00 | 0.00 | 0.00 | 87 | 1018.4 |
| 20260906070755 | 75 | 111 | 0.9 | 0.9 | 0.00 | 0.00 | 0.00 | 87 | 1018.3 |
| 20260906070250 | 75 | 141 | 0.0 | 0.0 | 0.00 | 0.00 | 0.00 | 87 | 1018.7 |
| 20260906065750 | 75 | 84 | 0.9 | 0.9 | 0.00 | 0.00 | 0.00 | 87 | 1018.3 |
| 20260906065245 | 75 | 97 | 0.0 | 0.0 | 0.00 | 0.00 | 0.00 | 87 | 1018.4 |
| 20260906064741 | 75 | 100 | 0.9 | 2.6 | 0.00 | 0.00 | 0.00 | 87 | 1018.5 |
| 20260906064237 | 75 | 85 | 0.9 | 0.9 | 0.00 | 0.00 | 0.00 | 87 | 1018.5 |
| 20260906063731 | 75 | 100 | 0.9 | 0.9 | 0.00 | 0.00 | 0.00 | 87 | 1018.5 |
| 20260906063227 | 76 | 71 | 0.0 | 0.0 | 0.00 | 0.00 | 0.00 | 87 | 1018.4 |
| 20260906062722 | 76 | 102 | 0.9 | 0.9 | 0.00 | 0.00 | 0.00 | 86 | 1018.5 |
| 20260906062221 | 76 | 90 | 1.7 | 1.7 | 0.00 | 0.00 | 0.00 | 86 | 1018.3 |
| 20260906061717 | 76 | 102 | 1.7 | 2.6 | 0.00 | 0.00 | 0.00 | 86 | 1018.4 |
| 20260906061213 | 76 | 100 | 0.0 | 0.0 | 0.00 | 0.00 | 0.00 | 86 | 1018.4 |
| 20260906060709 | 76 | 108 | 0.9 | 0.9 | 0.00 | 0.00 | 0.00 | 87 | 1018.3 |
| 20260906060206 | 76 | 115 | 0.0 | 0.0 | 0.00 | 0.00 | 0.00 | 87 | 1018.5 |
| 20260906055701 | 76 | 103 | 0.0 | 0.0 | 0.00 | 0.00 | 0.00 | 87 | 1018.2 |
| 20260906055156 | 76 | 103 | 0.9 | 0.9 | 0.00 | 0.00 | 0.00 | 88 | 1018.3 |
| 20260906054651 | 76 | 99 | 0.9 | 0.9 | 0.00 | 0.00 | 0.00 | 89 | 1018.2 |
| 20260906054146 | 76 | 82 | 1.7 | 1.7 | 0.00 | 0.00 | 0.00 | 90 | 1018.5 |
| 20260906053643 | 76 | 88 | 0.0 | 0.0 | 0.00 | 0.00 | 0.00 | 90 | 1018.3 |
| 20260906053138 | 76 | 89 | 0.9 | 0.9 | 0.00 | 0.00 | 0.00 | 90 | 1018.3 |
| 20260906052633 | 77 | 68 | 0.0 | 0.0 | 0.00 | 0.00 | 0.00 | 90 | 1018.5 |
| 20260906052129 | 77 | 69 | 0.0 | 0.0 | 0.00 | 0.00 | 0.00 | 90 | 1018.3 |
| 20260906051626 | 77 | 70 | 0.0 | 0.0 | 0.00 | 0.00 | 0.00 | 89 | 1018.4 |
| 20260906051120 | 77 | 70 | 0.0 | 0.9 | 0.00 | 0.00 | 0.00 | 89 | 1018.2 |
| 20260906050616 | 77 | 70 | 0.9 | 0.9 | 0.00 | 0.00 | 0.00 | 89 | 1018.3 |
| 20260906050111 | 77 | 67 | 0.0 | 0.0 | 0.00 | 0.00 | 0.00 | 89 | 1018.3 |
| 20260906045609 | 77 | 71 | 0.0 | 0.0 | 0.00 | 0.00 | 0.00 | 89 | 1018.3 |
| 20260906045105 | 77 | 72 | 0.9 | 0.9 | 0.00 | 0.00 | 0.00 | 88 | 1018.5 |
| 20260906044600 | 78 | 63 | 0.0 | 0.9 | 0.00 | 0.00 | 0.00 | 88 | 1018.4 |
| 20260906044055 | 78 | 58 | 0.0 | 0.0 | 0.00 | 0.00 | 0.00 | 88 | 1018.4 |
| 20260906043551 | 78 | 66 | 0.0 | 0.0 | 0.00 | 0.00 | 0.00 | 88 | 1018.4 |
| 20260906043047 | 78 | 66 | 0.0 | 0.0 | 0.00 | 0.00 | 0.00 | 88 | 1018.3 |
| 20260906042545 | 78 | 66 | 0.0 | 0.0 | 0.00 | 0.00 | 0.00 | 88 | 1018.2 |
| 20260906042040 | 78 | 66 | 0.0 | 0.0 | 0.00 | 0.00 | 0.00 | 87 | 1018.1 |
| 20260906041537 | 78 | 77 | 0.9 | 0.9 | 0.00 | 0.00 | 0.00 | 87 | 1017.9 |
| 20260906041031 | 79 | 79 | 0.9 | 0.9 | 0.00 | 0.00 | 0.00 | 87 | 1017.8 |
| 20260906040526 | 79 | 73 | 0.0 | 0.0 | 0.00 | 0.00 | 0.00 | 86 | 1017.6 |
| 20260906040022 | 79 | 79 | 0.0 | 0.9 | 0.00 | 0.00 | 0.00 | 86 | 1017.9 |
| 20260906035516 | 79 | 74 | 0.9 | 0.9 | 0.00 | 0.00 | 0.00 | 86 | 1017.8 |
| 20260906035013 | 80 | 60 | 0.9 | 0.9 | 0.00 | 0.00 | 0.00 | 85 | 1018.0 |
| 20260906034512 | 80 | 68 | 0.0 | 0.0 | 0.00 | 0.00 | 0.00 | 85 | 1017.8 |
| 20260906034007 | 80 | 68 | 0.0 | 0.0 | 0.00 | 0.00 | 0.00 | 84 | 1017.6 |
| 20260906033502 | 80 | 75 | 0.0 | 0.0 | 0.00 | 0.00 | 0.00 | 84 | 1017.9 |
| 20260906032958 | 80 | 80 | 0.9 | 0.9 | 0.00 | 0.00 | 0.00 | 83 | 1017.8 |
| 20260906032454 | 81 | 71 | 0.0 | 0.0 | 0.00 | 0.00 | 0.00 | 83 | 1017.9 |
| 20260906031948 | 81 | 67 | 0.9 | 0.9 | 0.00 | 0.00 | 0.00 | 83 | 1017.5 |
| 20260906031444 | 81 | 81 | 0.9 | 0.9 | 0.00 | 0.00 | 0.00 | 82 | 1017.6 |
| 20260906030939 | 81 | 74 | 0.0 | 0.0 | 0.00 | 0.00 | 0.00 | 82 | 1017.8 |
| 20260906030434 | 81 | 70 | 0.9 | 0.9 | 0.00 | 0.00 | 0.00 | 81 | 1017.6 |
| 20260906025928 | 81 | 78 | 0.9 | 0.9 | 0.00 | 0.00 | 0.00 | 81 | 1017.5 |
| 20260906025422 | 82 | 72 | 0.9 | 0.9 | 0.00 | 0.00 | 0.00 | 81 | 1017.2 |
| 20260906024921 | 82 | 78 | 0.0 | 0.0 | 0.00 | 0.00 | 0.00 | 81 | 1017.3 |
| 20260906024421 | 82 | 77 | 0.0 | 0.0 | 0.00 | 0.00 | 0.00 | 80 | 1017.3 |
| 20260906023916 | 82 | 72 | 0.0 | 0.0 | 0.00 | 0.00 | 0.00 | 80 | 1017.3 |
| 20260906023413 | 82 | 95 | 1.7 | 1.7 | 0.00 | 0.00 | 0.00 | 79 | 1017.1 |
| 20260906022912 | 82 | 89 | 0.9 | 0.9 | 0.00 | 0.00 | 0.00 | 80 | 1016.9 |
| 20260906022407 | 82 | 61 | 0.0 | 0.9 | 0.00 | 0.00 | 0.00 | 79 | 1017.0 |
| 20260906021903 | 82 | 82 | 0.9 | 0.9 | 0.00 | 0.00 | 0.00 | 79 | 1016.8 |
| 20260906021402 | 82 | 60 | 0.0 | 0.9 | 0.00 | 0.00 | 0.00 | 79 | 1016.9 |
| 20260906020857 | 83 | 67 | 0.0 | 0.0 | 0.00 | 0.00 | 0.00 | 78 | 1016.7 |
| 20260906020351 | 83 | 74 | 0.0 | 0.0 | 0.00 | 0.00 | 0.00 | 78 | 1016.7 |
| 20260906015846 | 83 | 63 | 0.0 | 0.0 | 0.00 | 0.00 | 0.00 | 77 | 1016.6 |
| 20260906015345 | 84 | 75 | 0.0 | 0.9 | 0.00 | 0.00 | 0.00 | 76 | 1016.6 |
| 20260906014844 | 84 | 68 | 0.0 | 0.0 | 0.00 | 0.00 | 0.00 | 75 | 1016.7 |
| 20260906014339 | 84 | 68 | 0.0 | 0.0 | 0.00 | 0.00 | 0.00 | 75 | 1016.5 |
| 20260906013836 | 84 | 71 | 0.0 | 0.0 | 0.00 | 0.00 | 0.00 | 74 | 1016.7 |
| 20260906013331 | 84 | 71 | 0.0 | 0.0 | 0.00 | 0.00 | 0.00 | 74 | 1016.8 |
| 20260906012826 | 84 | 71 | 0.0 | 0.0 | 0.00 | 0.00 | 0.00 | 74 | 1016.8 |
| 20260906012321 | 84 | 71 | 0.0 | 0.0 | 0.00 | 0.00 | 0.00 | 73 | 1016.6 |
| 20260906011815 | 85 | 71 | 0.9 | 0.9 | 0.00 | 0.00 | 0.00 | 73 | 1016.3 |
| 20260906011310 | 85 | 71 | 0.0 | 0.0 | 0.00 | 0.00 | 0.00 | 72 | 1016.5 |
| 20260906010806 | 85 | 71 | 0.0 | 0.0 | 0.00 | 0.00 | 0.00 | 72 | 1016.5 |
| 20260906010302 | 85 | 71 | 0.0 | 0.0 | 0.00 | 0.00 | 0.00 | 72 | 1016.4 |
| 20260906005757 | 85 | 71 | 0.0 | 0.0 | 0.00 | 0.00 | 0.00 | 71 | 1016.4 |
| 20260906005256 | 85 | 78 | 0.9 | 0.9 | 0.00 | 0.00 | 0.00 | 71 | 1016.4 |
| 20260906004755 | 86 | 79 | 0.0 | 0.0 | 0.00 | 0.00 | 0.00 | 71 | 1016.3 |
| 20260906004249 | 86 | 79 | 0.0 | 0.0 | 0.00 | 0.00 | 0.00 | 70 | 1016.2 |
| 20260906003744 | 86 | 79 | 0.0 | 0.0 | 0.00 | 0.00 | 0.00 | 70 | 1016.1 |
| 20260906003240 | 86 | 73 | 0.0 | 0.0 | 0.00 | 0.00 | 0.00 | 70 | 1016.3 |
| 20260906002735 | 87 | 77 | 0.0 | 0.0 | 0.00 | 0.00 | 0.00 | 69 | 1016.2 |
| 20260906002235 | 87 | 73 | 1.7 | 1.7 | 0.00 | 0.00 | 0.00 | 69 | 1016.2 |
| 20260906001730 | 87 | 89 | 0.9 | 0.9 | 0.00 | 0.00 | 0.00 | 69 | 1016.3 |
| 20260906001225 | 87 | 60 | 0.0 | 0.0 | 0.00 | 0.00 | 0.00 | 68 | 1016.2 |
| 20260906000721 | 87 | 55 | 0.9 | 1.7 | 0.00 | 0.00 | 0.00 | 67 | 1016.2 |
| 20260906000215 | 88 | 92 | 1.7 | 1.7 | 0.00 | 0.00 | 0.00 | 67 | 1016.0 |
| 20260905235715 | 88 | 65 | 0.9 | 0.9 | 0.00 | 0.00 | 0.00 | 66 | 1016.0 |
| 20260905235210 | 88 | 80 | 0.9 | 0.9 | 0.00 | 0.00 | 0.00 | 66 | 1016.0 |
| 20260905234705 | 88 | 84 | 0.9 | 0.9 | 0.00 | 0.00 | 0.00 | 66 | 1016.3 |
| 20260905234201 | 88 | 57 | 0.9 | 0.9 | 0.00 | 0.00 | 0.00 | 67 | 1016.2 |
| 20260905233656 | 89 | 69 | 0.9 | 0.9 | 0.00 | 0.00 | 0.00 | 67 | 1016.1 |
| 20260905233155 | 89 | 63 | 0.9 | 0.9 | 0.00 | 0.00 | 0.00 | 66 | 1016.2 |
| 20260905232650 | 89 | 75 | 0.9 | 0.9 | 0.00 | 0.00 | 0.00 | 65 | 1016.2 |
| 20260905232146 | 89 | 93 | 0.9 | 1.7 | 0.00 | 0.00 | 0.00 | 65 | 1015.9 |
| 20260905231641 | 90 | 80 | 0.9 | 0.9 | 0.00 | 0.00 | 0.00 | 64 | 1015.9 |
| 20260905231137 | 90 | 90 | 0.9 | 1.7 | 0.00 | 0.00 | 0.00 | 64 | 1015.6 |
| 20260905230633 | 90 | 46 | 1.7 | 1.7 | 0.00 | 0.00 | 0.00 | 63 | 1015.8 |
| 20260905230131 | 91 | 99 | 2.6 | 2.6 | 0.00 | 0.00 | 0.00 | 63 | 1016.0 |
| 20260905225625 | 90 | 67 | 0.9 | 0.9 | 0.00 | 0.00 | 0.00 | 63 | 1015.9 |
| 20260905225120 | 91 | 86 | 0.0 | 0.0 | 0.00 | 0.00 | 0.00 | 62 | 1015.9 |
| 20260905224619 | 90 | 69 | 0.0 | 0.0 | 0.00 | 0.00 | 0.00 | 62 | 1015.8 |
| 20260905224119 | 90 | 70 | 0.9 | 0.9 | 0.00 | 0.00 | 0.00 | 62 | 1016.1 |
| 20260905223616 | 91 | 46 | 1.7 | 2.6 | 0.00 | 0.00 | 0.00 | 62 | 1015.9 |
| 20260905223113 | 91 | 78 | 1.7 | 1.7 | 0.00 | 0.00 | 0.00 | 62 | 1016.0 |
| 20260905222613 | 91 | 71 | 0.0 | 0.9 | 0.00 | 0.00 | 0.00 | 62 | 1016.1 |
| 20260905222108 | 91 | 58 | 1.7 | 1.7 | 0.00 | 0.00 | 0.00 | 60 | 1015.9 |
| 20260905221604 | 91 | 54 | 1.7 | 2.6 | 0.00 | 0.00 | 0.00 | 60 | 1015.8 |
| 20260905221100 | 91 | 67 | 2.6 | 4.3 | 0.00 | 0.00 | 0.00 | 61 | 1015.8 |
| 20260905220555 | 91 | 60 | 0.9 | 0.9 | 0.00 | 0.00 | 0.00 | 61 | 1015.9 |
| 20260905220051 | 91 | 59 | 0.9 | 0.9 | 0.00 | 0.00 | 0.00 | 60 | 1015.9 |
| 20260905215550 | 91 | 89 | 0.9 | 0.9 | 0.00 | 0.00 | 0.00 | 61 | 1016.0 |
| 20260905215046 | 90 | 90 | 0.9 | 0.9 | 0.00 | 0.00 | 0.00 | 63 | 1015.9 |
| 20260905214542 | 90 | 98 | 0.9 | 0.9 | 0.00 | 0.00 | 0.00 | 62 | 1016.0 |
| 20260905214037 | 90 | 54 | 0.0 | 0.9 | 0.00 | 0.00 | 0.00 | 62 | 1016.0 |
| 20260905213532 | 90 | 108 | 1.7 | 2.6 | 0.00 | 0.00 | 0.00 | 62 | 1016.1 |
| 20260905213028 | 90 | 103 | 0.9 | 0.9 | 0.00 | 0.00 | 0.00 | 62 | 1016.0 |
| 20260905212522 | 90 | 95 | 1.7 | 1.7 | 0.00 | 0.00 | 0.00 | 63 | 1016.3 |
| 20260905212022 | 90 | 3 | 0.9 | 0.9 | 0.00 | 0.00 | 0.00 | 63 | 1016.3 |
| 20260905211517 | 90 | 57 | 1.7 | 1.7 | 0.00 | 0.00 | 0.00 | 62 | 1016.2 |
| 20260905211013 | 90 | 34 | 1.7 | 4.3 | 0.00 | 0.00 | 0.00 | 62 | 1016.1 |
| 20260905210509 | 89 | 77 | 0.9 | 1.7 | 0.00 | 0.00 | 0.00 | 62 | 1015.9 |
| 20260905210009 | 90 | 62 | 0.9 | 0.9 | 0.00 | 0.00 | 0.00 | 61 | 1016.0 |
| 20260905205503 | 91 | 95 | 1.7 | 2.6 | 0.00 | 0.00 | 0.00 | 61 | 1015.6 |
| 20260905205001 | 91 | 93 | 0.9 | 1.7 | 0.00 | 0.00 | 0.00 | 60 | 1015.6 |
| 20260905204457 | 90 | 97 | 0.9 | 0.9 | 0.00 | 0.00 | 0.00 | 62 | 1015.8 |
| 20260905203956 | 91 | 75 | 2.6 | 2.6 | 0.00 | 0.00 | 0.00 | 60 | 1016.0 |
| 20260905203452 | 92 | 77 | 0.9 | 0.9 | 0.00 | 0.00 | 0.00 | 60 | 1016.0 |
| 20260905202947 | 90 | 75 | 0.9 | 0.9 | 0.00 | 0.00 | 0.00 | 63 | 1015.9 |
| 20260905202442 | 91 | 30 | 0.9 | 1.7 | 0.00 | 0.00 | 0.00 | 62 | 1016.0 |
| 20260905201938 | 90 | 59 | 0.9 | 0.9 | 0.00 | 0.00 | 0.00 | 62 | 1016.2 |
| 20260905201433 | 90 | 86 | 2.6 | 2.6 | 0.00 | 0.00 | 0.00 | 63 | 1016.2 |
| 20260905200927 | 91 | 57 | 0.9 | 1.7 | 0.00 | 0.00 | 0.00 | 63 | 1016.3 |
| 20260905200423 | 91 | 70 | 0.0 | 0.0 | 0.00 | 0.00 | 0.00 | 62 | 1016.3 |
| 20260905195921 | 91 | 61 | 1.7 | 1.7 | 0.00 | 0.00 | 0.00 | 62 | 1016.3 |
| 20260905195416 | 91 | 89 | 0.9 | 0.9 | 0.00 | 0.00 | 0.00 | 64 | 1016.0 |
| 20260905194912 | 91 | 69 | 0.9 | 1.7 | 0.00 | 0.00 | 0.00 | 64 | 1016.5 |
| 20260905194411 | 90 | 26 | 2.6 | 4.3 | 0.00 | 0.00 | 0.00 | 65 | 1016.6 |
| 20260905193906 | 89 | 82 | 0.9 | 0.9 | 0.00 | 0.00 | 0.00 | 66 | 1016.8 |
| 20260905193401 | 89 | 72 | 0.9 | 0.9 | 0.00 | 0.00 | 0.00 | 67 | 1016.9 |
| 20260905192856 | 90 | 48 | 0.9 | 0.9 | 0.00 | 0.00 | 0.00 | 65 | 1017.1 |
| 20260905192351 | 90 | 55 | 0.9 | 0.9 | 0.00 | 0.00 | 0.00 | 65 | 1017.1 |
| 20260905191851 | 91 | 354 | 2.6 | 2.6 | 0.00 | 0.00 | 0.00 | 64 | 1017.0 |
| 20260905191350 | 90 | 57 | 0.9 | 0.9 | 0.00 | 0.00 | 0.00 | 65 | 1017.1 |
| 20260905190849 | 90 | 54 | 1.7 | 1.7 | 0.00 | 0.00 | 0.00 | 65 | 1017.2 |
| 20260905190343 | 90 | 69 | 0.9 | 0.9 | 0.00 | 0.00 | 0.00 | 65 | 1017.5 |
| 20260905185841 | 89 | 61 | 0.9 | 0.9 | 0.00 | 0.00 | 0.00 | 67 | 1017.5 |
| 20260905185336 | 89 | 38 | 0.9 | 1.7 | 0.00 | 0.00 | 0.00 | 67 | 1017.6 |
| 20260905184830 | 89 | 21 | 2.6 | 2.6 | 0.00 | 0.00 | 0.00 | 67 | 1017.6 |
| 20260905184330 | 89 | 344 | 6.1 | 7.0 | 0.00 | 0.00 | 0.00 | 65 | 1017.9 |
| 20260905183828 | 89 | 59 | 0.9 | 0.9 | 0.00 | 0.00 | 0.00 | 68 | 1017.6 |
| 20260905183323 | 89 | 75 | 0.9 | 1.7 | 0.00 | 0.00 | 0.00 | 67 | 1017.6 |
| 20260905182817 | 89 | 46 | 1.7 | 1.7 | 0.00 | 0.00 | 0.00 | 67 | 1017.9 |
| 20260905182312 | 88 | 59 | 0.9 | 0.9 | 0.00 | 0.00 | 0.00 | 68 | 1018.0 |
| 20260905181808 | 87 | 64 | 0.9 | 1.7 | 0.00 | 0.00 | 0.00 | 70 | 1017.6 |
| 20260905181306 | 87 | 13 | 7.8 | 8.7 | 0.00 | 0.00 | 0.00 | 69 | 1018.0 |
| 20260905180800 | 88 | 21 | 2.6 | 2.6 | 0.00 | 0.00 | 0.00 | 69 | 1017.9 |
| 20260905180255 | 87 | 28 | 3.5 | 5.2 | 0.00 | 0.00 | 0.00 | 70 | 1017.8 |
| 20260905175750 | 87 | 10 | 9.6 | 9.6 | 0.00 | 0.00 | 0.00 | 69 | 1018.1 |
| 20260905175245 | 87 | 37 | 3.5 | 4.3 | 0.00 | 0.00 | 0.00 | 70 | 1017.8 |
| 20260905174740 | 86 | 351 | 3.5 | 5.2 | 0.00 | 0.00 | 0.00 | 73 | 1018.0 |
| 20260905174236 | 87 | 56 | 5.2 | 6.1 | 0.00 | 0.00 | 0.00 | 72 | 1017.8 |
| 20260905173732 | 87 | 8 | 3.5 | 4.3 | 0.00 | 0.00 | 0.00 | 71 | 1018.1 |
| 20260905173227 | 87 | 345 | 4.3 | 5.2 | 0.00 | 0.00 | 0.00 | 70 | 1018.2 |
| 20260905172727 | 87 | 5 | 6.1 | 7.0 | 0.00 | 0.00 | 0.00 | 70 | 1017.9 |